Theta_e
311 310 310 309 306 304 304 304 304 304 304 304 305 306 306 307 306 307 308 309 309 310 311 312 313 314 317 333 332 324 320 318 319 322 327 330 330 331 333 335 336 337 340 338 336 335 335
309 309 310 308 307 303 303 303 303 303 303 303 304 305 306 307 306 307 308 309 310 310 312 313 315 313 329 328 330 326 324 323 324 326 328 329 330 331 333 334 336 338 339 337 335 336 335
308 308 308 308 306 303 302 302 302 302 302 302 303 305 306 305 306 307 309 309 310 311 314 315 316 313 325 324 324 330 326 324 326 327 329 329 329 330 332 334 336 337 337 336 336 335 334
308 308 308 308 305 302 301 301 301 301 301 301 302 304 305 305 306 307 309 310 310 312 316 318 317 321 326 325 324 325 328 327 326 326 327 329 329 330 331 333 335 336 336 338 338 339 333
307 308 307 308 304 303 301 301 301 301 301 301 301 303 304 305 306 307 309 310 311 313 317 319 323 329 328 324 322 322 326 327 327 327 328 327 328 328 331 332 334 335 337 340 337 338 332
307 307 307 307 305 302 300 300 300 301 301 301 301 302 303 304 305 307 310 312 314 318 321 325 326 326 325 324 324 325 326 327 328 328 328 328 326 326 329 331 334 338 340 340 342 338 332
307 306 307 307 304 302 300 300 300 300 301 301 301 302 303 304 305 307 309 319 326 330 322 325 327 324 325 324 325 325 325 326 326 327 328 328 326 326 328 331 332 333 340 343 341 340 331
306 306 305 306 303 300 299 299 299 300 300 301 301 302 303 304 306 308 308 325 322 321 322 324 326 325 325 324 325 325 325 326 326 325 327 327 327 327 328 330 331 333 334 338 339 335 332
306 306 306 305 304 300 299 299 299 299 300 301 301 302 303 305 306 309 318 321 320 320 321 322 323 324 324 324 323 324 327 326 326 326 326 326 327 328 327 328 329 332 333 332 332 334 333
305 306 305 305 304 301 299 299 299 299 300 301 301 302 303 305 312 318 317 321 319 320 322 322 323 324 324 324 323 324 327 326 326 326 326 326 328 327 327 326 327 328 330 331 331 332 330
304 305 305 304 303 301 299 299 299 299 299 300 301 302 304 304 308 317 321 319 319 321 323 325 324 325 324 323 325 324 325 327 326 327 326 326 326 326 326 326 326 329 329 331 331 329 330
303 304 305 304 302 300 298 299 298 299 299 300 301 302 305 313 315 313 316 318 320 322 322 324 324 323 323 324 324 326 325 327 327 326 328 326 328 326 326 326 327 328 328 330 330 330 331
302 303 304 303 302 299 298 298 298 298 299 300 302 306 307 308 318 317 315 319 322 322 323 323 323 324 323 323 323 325 325 326 325 327 328 328 327 327 327 325 327 327 328 331 332 331 331
302 302 303 303 302 299 298 298 298 298 299 302 305 309 308 310 313 316 316 320 323 323 323 325 324 324 323 324 324 324 326 326 326 326 327 328 327 326 327 326 328 330 328 331 336 334 338
301 303 304 303 301 300 298 298 298 298 299 304 309 313 314 317 312 314 319 321 322 324 324 324 324 323 324 324 324 324 325 326 327 326 329 328 328 329 327 327 327 330 329 328 330 331 333
300 301 302 302 302 300 299 297 297 298 301 306 311 314 318 316 315 315 319 321 321 323 323 323 323 324 323 324 324 324 325 326 326 328 328 328 329 329 328 328 328 329 331 331 329 336 337
300 301 301 301 302 300 300 297 297 298 303 309 312 321 319 316 315 317 319 320 321 323 323 322 322 323 323 324 325 325 324 326 326 327 328 327 328 330 328 328 329 330 330 333 332 332 337
299 301 301 301 302 301 300 297 296 300 305 315 318 321 318 314 315 317 320 322 322 323 322 321 321 322 324 325 326 327 325 326 327 326 326 327 327 330 330 329 330 330 330 330 332 339 335
299 300 300 300 301 299 298 297 296 304 306 311 322 321 318 314 314 316 318 321 324 323 322 321 320 321 322 324 326 327 327 326 326 326 327 328 327 328 330 330 332 330 330 331 335 340 341
299 299 299 299 300 299 297 297 296 304 306 309 324 321 318 316 316 318 321 321 323 321 321 320 320 320 321 321 324 326 327 327 326 325 333 329 330 333 327 332 330 333 330 330 333 337 336
300 299 299 299 299 299 297 297 297 304 307 309 321 324 323 317 316 316 320 321 321 321 320 320 319 319 320 321 323 324 325 327 328 326 326 328 337 330 330 329 330 331 332 332 330 331 333
300 300 299 298 299 298 297 297 297 304 309 314 323 323 323 322 323 319 317 319 321 321 321 321 320 320 320 321 322 324 324 326 328 329 328 327 335 332 330 329 329 329 332 337 336 331 330
299 301 300 299 298 298 297 297 297 304 311 318 317 317 320 321 320 322 321 321 321 321 322 322 322 321 321 322 322 322 325 327 332 335 340 336 333 338 333 329 329 331 329 330 330 332 330
299 300 301 299 298 298 298 296 296 299 304 311 316 316 320 320 323 321 320 322 321 322 322 322 323 323 323 327 327 326 325 326 328 331 333 343 350 338 335 338 334 331 330 329 330 332 340
300 300 301 300 299 298 298 297 296 296 304 309 313 315 319 320 322 321 322 321 321 321 322 321 324 323 327 328 328 327 328 329 326 327 329 332 340 339 340 334 332 331 331 330 329 332 345
300 300 301 301 299 298 298 297 296 296 298 309 314 311 316 319 320 321 322 321 321 323 324 323 321 325 326 328 328 333 327 326 326 325 328 331 345 339 341 336 336 336 340 337 338 340 343
300 301 301 301 300 299 298 298 296 296 296 303 312 310 314 317 316 316 319 321 321 322 324 329 328 327 326 327 326 326 325 325 327 332 335 335 339 339 338 337 336 342 337 339 350 351 341
300 300 301 301 301 300 297 298 297 296 296 301 312 309 311 317 316 315 315 318 319 320 322 323 327 327 328 330 327 327 329 330 331 333 337 337 339 338 340 339 341 350 337 341 343 338 343
301 300 301 301 301 300 298 297 297 296 296 299 311 310 309 311 315 313 312 312 313 315 317 321 324 330 330 332 334 334 330 335 338 337 335 337 347 343 343 345 343 346 352 352 350 352 349
Wind_Speed
15 14 14 14 13 11 12 12 13 14 16 16 17 17 18 19 20 20 21 20 21 21 20 19 18 18 9 7 4 8 5 5 8 10 15 14 15 15 16 18 21 7 9 2 6 5 5
13 13 14 14 14 12 12 12 13 14 16 17 18 18 19 20 22 23 21 21 22 21 20 17 15 14 6 13 5 7 6 8 12 16 16 14 13 16 14 16 17 7 13 10 4 5 4
13 13 14 15 15 13 12 12 13 14 16 17 19 19 20 22 23 23 22 21 22 21 19 14 12 9 11 14 2 4 6 11 9 11 13 13 10 11 13 18 14 13 15 12 7 11 2
12 13 14 15 15 15 13 13 13 14 16 17 19 19 20 22 24 24 23 22 21 19 16 12 11 5 7 4 5 8 10 12 9 11 11 9 8 14 18 18 16 12 18 11 8 33 2
13 13 14 15 15 15 14 14 14 16 17 18 20 20 21 22 24 25 25 22 20 18 14 10 9 9 16 4 9 14 14 13 11 11 11 8 9 15 16 17 15 15 16 11 7 29 9
12 13 14 15 16 15 15 15 15 16 17 19 21 21 22 22 23 24 25 22 20 18 10 8 15 10 10 10 7 4 10 9 7 11 13 10 11 13 15 15 15 5 16 15 18 25 2
13 13 15 15 16 15 15 15 15 17 18 19 21 22 21 22 21 21 25 11 5 4 10 14 5 12 5 6 4 10 13 10 13 11 12 15 12 14 18 19 19 21 19 16 10 37 2
11 13 15 15 16 15 15 15 16 17 18 19 21 21 21 22 20 17 16 7 7 7 10 15 19 18 13 4 8 12 13 10 13 13 15 12 12 14 17 18 20 15 8 13 16 14 5
11 12 14 15 16 15 15 16 16 17 18 19 21 21 21 20 20 11 10 9 8 10 7 16 20 17 16 15 14 14 13 13 15 14 15 16 17 13 12 12 10 13 13 13 13 5 4
12 12 13 14 15 15 15 16 17 18 19 20 20 20 20 20 10 10 11 2 7 5 6 15 18 11 16 15 17 18 17 14 12 15 14 14 16 7 9 11 14 14 15 14 13 10 9
14 14 14 15 16 16 16 17 18 19 20 20 20 20 18 16 15 6 6 6 8 6 6 7 16 5 13 16 13 20 18 14 15 14 10 13 12 14 10 12 12 12 13 12 4 8 12
14 14 15 16 16 17 17 18 18 19 20 21 20 19 18 3 8 13 10 8 8 6 11 6 7 10 15 19 19 9 17 14 11 14 14 14 17 7 12 11 12 11 15 11 8 11 11
14 15 15 17 18 18 18 19 19 20 22 21 20 18 16 12 5 5 8 9 6 9 13 13 9 13 17 18 18 13 14 16 14 11 14 15 16 11 14 14 16 8 13 8 9 11 12
13 14 15 17 19 19 19 20 20 22 23 24 20 19 12 15 8 10 9 8 11 10 22 7 4 13 17 18 20 20 16 15 18 20 13 13 14 19 14 16 10 13 16 12 12 6 5
11 13 14 16 18 20 20 20 21 22 23 26 20 10 8 8 12 10 7 12 11 16 14 17 11 13 12 13 16 19 21 18 18 18 17 15 16 10 18 13 16 16 11 18 18 16 5
12 13 16 17 19 21 20 20 22 24 23 25 13 13 18 11 9 10 8 16 17 20 8 9 7 11 14 17 16 17 17 19 19 18 18 18 11 16 15 13 15 18 10 10 9 9 12
11 12 15 18 19 21 21 20 22 25 23 19 5 6 9 8 10 7 10 16 19 23 4 5 10 16 20 19 16 18 17 18 17 20 15 13 12 15 11 10 14 8 11 10 14 8 1
11 12 13 15 17 19 20 20 22 26 24 5 9 7 10 11 7 9 13 19 15 16 9 8 11 15 18 13 15 14 14 15 14 14 16 12 9 13 19 15 14 17 15 16 9 9 8
10 11 12 14 17 19 18 19 21 23 23 10 4 6 9 12 7 11 17 21 20 9 8 12 11 13 15 13 9 12 16 6 7 4 3 12 10 12 14 16 14 16 20 13 12 11 15
8 10 11 13 16 18 18 18 20 21 19 4 5 3 5 6 11 16 15 17 11 7 15 12 14 13 14 11 14 10 17 2 2 9 9 8 9 9 14 14 11 14 15 16 16 9 10
8 9 10 11 14 17 17 17 19 19 17 2 4 6 5 5 10 13 13 13 15 15 11 12 12 11 10 9 14 14 17 17 6 5 8 6 9 12 16 19 18 18 18 22 19 17 16
9 10 11 12 13 16 17 17 19 20 13 5 5 6 10 10 5 6 6 8 11 11 13 13 14 15 17 15 16 15 16 13 14 10 13 11 9 11 17 19 21 20 8 6 31 16 15
10 10 10 12 13 16 17 16 18 22 13 7 11 12 4 9 7 9 10 13 14 12 12 6 10 12 14 12 14 18 14 13 11 10 10 11 10 10 14 17 18 19 20 14 13 10 12
11 10 10 11 13 14 17 15 15 16 16 8 10 10 7 10 10 10 14 2 1 6 8 14 15 13 9 11 12 10 13 14 15 13 10 9 8 8 11 14 18 16 19 20 16 12 10
13 11 9 10 12 13 15 16 13 14 11 9 10 8 7 10 14 11 4 4 8 3 10 14 11 4 8 9 5 6 11 15 18 19 12 12 9 9 12 14 17 19 20 21 14 13 11
15 12 9 9 10 12 13 15 14 13 13 9 8 6 7 8 7 12 8 4 8 10 13 10 11 3 6 8 8 12 12 15 15 18 16 16 9 10 12 15 20 15 7 14 17 6 18
16 13 10 8 9 10 12 14 14 12 13 10 6 8 6 8 2 8 5 8 8 7 6 10 11 5 12 9 11 13 14 17 15 17 16 14 10 14 13 13 17 9 8 10 3 4 15
18 14 11 9 8 9 10 12 14 12 13 12 7 6 6 6 4 5 7 6 6 4 7 10 9 8 8 10 10 12 8 4 9 14 14 10 10 12 13 17 14 15 12 3 6 16 15
19 15 12 10 8 8 9 10 12 12 11 10 5 4 7 6 8 7 8 6 6 4 5 7 8 4 6 7 7 6 6 6 9 10 13 5 4 2 8 3 2 11 11 11 2 1 9
Wind_Direction
19 14 11 8 3 1 356 353 352 350 348 345 343 339 338 336 336 332 330 331 329 327 326 327 326 327 338 246 228 136 133 192 201 225 237 246 260 265 262 271 288 266 295 137 235 162 312
15 12 10 5 0 356 349 348 346 346 343 342 340 335 333 331 333 330 328 327 324 324 324 322 323 323 281 273 76 157 169 204 232 224 238 241 263 267 299 290 292 324 297 268 252 189 185
10 8 7 3 358 354 349 345 342 341 340 340 337 332 330 329 329 326 324 323 320 320 321 317 316 320 274 256 240 220 213 230 241 247 265 235 286 294 274 268 283 260 273 256 286 259 290
7 6 4 359 355 351 347 341 339 336 337 339 335 330 328 328 325 323 319 317 314 313 311 307 300 292 263 172 251 234 244 247 233 244 259 310 277 273 276 284 291 260 262 29 66 277 248
5 2 1 357 354 350 345 340 338 337 337 337 334 329 327 326 325 321 316 312 305 298 291 291 292 219 273 157 224 230 226 243 224 226 241 257 269 261 254 250 259 241 245 170 215 232 292
359 359 358 355 353 349 344 340 336 336 335 335 334 329 325 325 324 322 316 310 292 285 277 259 263 274 242 242 213 228 230 236 271 262 231 219 234 240 240 256 241 139 360 331 304 273 81
353 355 353 351 349 348 346 341 336 335 334 333 331 329 325 324 321 324 324 333 235 180 224 250 177 240 158 243 232 239 236 221 237 245 257 230 231 230 234 237 266 293 151 143 258 272 320
353 352 350 346 347 345 342 340 336 333 333 330 328 328 326 322 318 315 303 276 53 322 293 281 260 261 271 245 275 220 211 221 222 237 232 261 223 258 249 253 260 305 280 218 220 211 217
348 350 347 345 344 342 338 336 334 333 331 329 327 327 327 321 313 288 249 313 323 319 266 272 244 242 230 222 243 252 198 225 248 225 246 245 247 213 249 273 277 269 284 293 283 328 249
344 347 347 345 342 339 336 335 334 332 330 326 324 326 329 323 304 327 262 339 306 317 276 268 216 219 225 222 235 240 206 228 226 254 245 251 255 250 256 255 266 260 263 258 273 300 276
339 343 345 343 340 338 336 337 335 331 328 325 324 324 324 320 303 282 13 311 315 268 272 246 179 158 208 203 271 192 233 212 247 230 253 257 237 268 221 252 239 272 281 308 306 277 275
334 338 339 340 338 336 335 335 334 330 329 325 321 317 319 305 259 262 313 294 272 234 238 197 151 195 219 206 236 222 199 224 233 256 258 250 283 260 269 237 259 264 275 267 272 264 255
327 332 336 337 336 336 334 333 332 331 329 324 317 308 296 280 228 332 296 261 223 237 231 270 203 208 208 212 218 203 195 208 224 221 246 243 248 234 253 240 235 243 262 239 235 230 237
321 328 334 333 335 336 334 332 332 332 331 324 315 298 279 251 264 265 266 226 235 232 248 266 325 208 214 217 207 227 212 219 218 244 251 218 232 217 213 241 239 211 240 247 242 271 78
316 324 327 328 336 336 336 334 331 333 333 327 321 289 231 242 223 241 239 224 217 248 234 269 220 248 258 242 244 197 223 229 221 214 248 268 266 210 203 203 238 242 208 255 275 288 232
315 324 329 331 332 338 337 336 334 333 333 331 324 282 242 167 191 212 230 242 238 242 296 301 266 255 234 255 222 238 218 226 246 227 210 254 290 274 181 208 220 247 263 229 250 275 281
307 317 324 330 332 336 336 340 338 335 333 321 267 236 128 170 180 220 225 232 236 263 329 270 283 276 279 281 261 221 234 240 220 248 215 217 252 276 206 193 240 206 253 263 262 238 237
300 309 320 328 329 334 338 342 345 343 340 2 276 264 150 168 199 223 232 237 258 270 143 266 267 283 288 284 301 292 226 238 228 224 244 205 242 243 270 195 200 257 221 226 258 271 233
298 306 319 329 335 338 340 344 347 351 354 329 260 219 166 198 227 226 226 251 245 253 275 263 239 263 280 289 301 296 284 15 29 190 358 247 225 253 262 268 205 214 243 258 236 241 270
297 308 319 329 334 338 340 343 348 349 347 319 278 226 151 209 256 288 287 219 240 211 277 276 269 258 260 249 268 276 282 235 103 287 6 321 264 220 252 238 252 213 240 246 256 264 262
286 310 319 327 333 338 342 343 349 343 340 293 251 276 1 184 221 246 263 301 219 244 203 246 259 262 271 261 257 252 264 294 253 228 262 276 268 278 270 270 282 273 241 220 233 236 249
273 298 319 330 334 340 343 346 351 347 339 243 295 343 348 275 344 294 228 242 266 264 241 211 237 240 234 249 261 264 256 278 278 244 207 243 247 264 275 278 270 270 224 65 265 227 238
261 286 309 328 335 341 346 349 356 355 353 289 10 301 264 301 203 239 239 230 237 235 263 291 271 233 249 266 242 254 298 307 291 312 314 218 241 237 256 267 264 267 263 257 269 248 247
251 273 299 321 334 339 346 351 357 1 4 317 321 308 280 261 245 229 241 191 307 268 268 266 233 255 316 343 315 288 278 278 277 268 268 277 267 257 260 260 253 265 266 261 250 253 131
242 258 284 310 331 337 344 349 354 358 346 333 329 315 295 286 300 226 205 241 252 255 235 260 280 262 8 318 313 281 270 261 263 266 244 258 260 244 245 256 261 263 258 259 235 250 37
234 247 268 295 319 333 340 347 352 355 346 325 336 327 286 289 26 2 354 342 279 285 202 218 227 63 301 266 237 239 242 239 232 244 256 250 212 255 261 247 251 263 351 7 338 156 98
229 238 256 279 305 328 336 343 348 354 348 337 303 358 286 285 2 342 340 343 343 324 305 30 360 288 222 238 237 237 235 242 233 229 229 229 237 226 233 255 257 6 6 73 8 21 149
225 231 246 264 287 314 332 339 345 351 349 350 307 355 348 309 0 7 342 327 333 338 336 357 288 210 258 236 243 251 277 302 285 250 238 231 227 228 251 235 227 11 359 56 186 312 144
221 226 238 252 271 297 324 335 341 350 348 341 281 7 325 269 327 320 280 277 272 305 305 314 305 352 353 313 13 336 287 339 347 295 308 224 106 34 316 91 60 92 77 29 129 333 57